TimeAKDT,TemperatureF,Dew PointF,Humidity,Sea Level PressureIn,VisibilityMPH,Wind Direction,Wind SpeedMPH,Gust SpeedMPH,PrecipitationIn,Events,Conditions,WindDirDegrees,DateUTC
12:56 AM,53.1,43.0,69,29.25,10.0,South,3.5,-,N/A,,Scattered Clouds,170,2013-09-02 08:56:00
1:56 AM,54.0,45.0,72,29.23,10.0,SSE,10.4,-,N/A,,Overcast,150,2013-09-02 09:56:00
2:56 AM,55.0,46.9,74,29.20,10.0,SSE,10.4,19.6,N/A,,Overcast,160,2013-09-02 10:56:00
3:56 AM,55.0,46.9,74,29.16,10.0,SSE,17.3,23.0,N/A,Rain,Light Rain,150,2013-09-02 11:56:00
4:56 AM,54.0,48.0,80,29.12,10.0,SSE,12.7,21.9,N/A,Rain,Light Rain,160,2013-09-02 12:56:00
5:21 AM,55.4,48.2,77,29.09,10.0,SSE,19.6,24.2,N/A,Rain,Light Rain,160,2013-09-02 13:21:00
5:56 AM,53.1,48.0,83,29.09,8.0,Variable,4.6,-,N/A,Rain,Light Rain,0,2013-09-02 13:56:00
6:56 AM,55.0,48.0,77,29.05,10.0,SSE,12.7,18.4,N/A,Rain,Light Rain,150,2013-09-02 14:56:00
7:56 AM,55.0,46.9,74,29.01,10.0,SSE,11.5,-,N/A,Rain,Light Rain,160,2013-09-02 15:56:00
8:56 AM,54.0,48.0,80,28.99,7.0,SSE,11.5,19.6,N/A,Rain,Rain,150,2013-09-02 16:56:00
9:56 AM,53.1,48.0,83,28.98,6.0,South,3.5,-,N/A,Rain,Light Rain,190,2013-09-02 17:56:00
10:56 AM,54.0,48.9,83,28.98,10.0,SE,4.6,-,N/A,Rain,Light Rain,130,2013-09-02 18:56:00
11:56 AM,55.9,48.0,75,28.99,10.0,SSE,4.6,16.1,N/A,,Mostly Cloudy,150,2013-09-02 19:56:00
12:56 PM,54.0,46.9,77,29.02,10.0,West,5.8,-,N/A,,Mostly Cloudy,280,2013-09-02 20:56:00
1:56 PM,55.0,46.0,72,29.03,10.0,West,3.5,-,N/A,,Mostly Cloudy,260,2013-09-02 21:56:00
2:56 PM,55.0,45.0,69,29.04,10.0,SW,15.0,-,N/A,,Mostly Cloudy,230,2013-09-02 22:56:00
3:56 PM,54.0,46.0,75,29.05,10.0,SW,16.1,-,N/A,Rain,Light Rain,220,2013-09-02 23:56:00
4:10 PM,53.6,44.6,72,29.04,10.0,SW,12.7,-,N/A,,Overcast,230,2013-09-03 00:10:00
4:56 PM,55.0,44.1,67,29.05,10.0,SW,13.8,-,N/A,,Overcast,230,2013-09-03 00:56:00
5:56 PM,55.9,42.1,60,29.05,10.0,SSW,16.1,-,N/A,,Overcast,210,2013-09-03 01:56:00
6:56 PM,54.0,44.1,69,29.06,10.0,WSW,11.5,-,N/A,,Overcast,250,2013-09-03 02:56:00
7:56 PM,53.1,44.1,71,29.07,10.0,SW,18.4,25.3,N/A,,Overcast,230,2013-09-03 03:56:00
8:56 PM,53.1,44.1,71,29.09,10.0,SW,17.3,31.1,N/A,Rain,Light Rain,220,2013-09-03 04:56:00
9:56 PM,52.0,43.0,71,29.11,10.0,SW,17.3,24.2,N/A,,Overcast,230,2013-09-03 05:56:00
10:56 PM,52.0,43.0,71,29.14,10.0,West,9.2,18.4,N/A,Rain,Light Rain,260,2013-09-03 06:56:00
11:56 PM,51.1,43.0,74,29.18,10.0,SW,8.1,-,N/A,,Overcast,230,2013-09-03 07:56:00